Back to catalog

DELTA 1 DEB

AliveSSO
NORAD 12206·DEBRIS·🇺🇸 United States

Launched Mar 5, 1978 from Vandenberg Space Force Base

Loading…

Next Passes (next 24 hours)

TLE

FreshSource: Space-Track

Epoch: Sep 14, 2026, 06:03 UTC

1 12206U 78026AX  26257.25220043  .00001043  00000-0  61339-3 0  9997
2 12206  99.0032  11.1051 0158279 201.1174 158.3410 14.04188944313487

Track DELTA 1 DEB in real time with AllMySat

Download on the App Store